QPF
0.04 0.06 0.05 0.03 0.03 0.02 0.02 0.02 0.01 0.01 0.01 0.01 0.00 0.00 0.00 0.00 0.00 0.00 0.00 0.00 0.00 0.00 0.00 0.00 0.00 0.00 0.00 0.02 0.03 0.02 0.02 0.01 0.01 0.00 0.00 0.00 0.00 0.00 0.00 0.00 0.00 0.00 0.00 0.00
0.05 0.05 0.03 0.01 0.02 0.02 0.02 0.03 0.02 0.01 0.01 0.01 0.01 0.00 0.00 0.00 0.00 0.00 0.00 0.00 0.00 0.00 0.00 0.00 0.00 0.00 0.00 0.01 0.03 0.03 0.02 0.01 0.01 0.00 0.00 0.00 0.00 0.00 0.00 0.00 0.00 0.00 0.00 0.00
0.04 0.03 0.02 0.03 0.03 0.04 0.04 0.04 0.02 0.02 0.01 0.02 0.02 0.01 0.00 0.00 0.00 0.00 0.00 0.00 0.00 0.00 0.00 0.00 0.00 0.00 0.00 0.00 0.02 0.04 0.03 0.02 0.01 0.01 0.00 0.00 0.00 0.00 0.00 0.00 0.00 0.00 0.00 0.00
0.03 0.01 0.02 0.04 0.04 0.04 0.04 0.02 0.02 0.02 0.03 0.03 0.03 0.02 0.00 0.00 0.00 0.00 0.00 0.00 0.00 0.00 0.00 0.00 0.00 0.00 0.00 0.00 0.01 0.03 0.04 0.02 0.01 0.01 0.01 0.00 0.00 0.00 0.00 0.00 0.00 0.00 0.00 0.00
0.03 0.01 0.02 0.03 0.03 0.03 0.03 0.02 0.02 0.03 0.04 0.04 0.03 0.03 0.01 0.00 0.00 0.00 0.00 0.00 0.00 0.00 0.00 0.00 0.00 0.00 0.00 0.00 0.00 0.01 0.04 0.03 0.02 0.01 0.01 0.00 0.00 0.00 0.00 0.00 0.00 0.00 0.00 0.00
0.02 0.01 0.02 0.02 0.01 0.02 0.04 0.04 0.04 0.04 0.06 0.06 0.02 0.02 0.01 0.00 0.00 0.00 0.00 0.00 0.00 0.00 0.00 0.00 0.00 0.00 0.00 0.00 0.00 0.01 0.02 0.04 0.03 0.02 0.01 0.00 0.00 0.00 0.00 0.00 0.00 0.00 0.00 0.00
0.03 0.02 0.02 0.02 0.02 0.03 0.05 0.08 0.11 0.11 0.10 0.05 0.01 0.01 0.00 0.00 0.00 0.00 0.00 0.00 0.00 0.00 0.00 0.00 0.00 0.00 0.00 0.00 0.00 0.00 0.01 0.03 0.03 0.02 0.02 0.01 0.00 0.00 0.00 0.00 0.00 0.00 0.00 0.00
0.04 0.02 0.02 0.02 0.02 0.02 0.03 0.06 0.09 0.09 0.05 0.02 0.00 0.00 0.01 0.01 0.00 0.00 0.00 0.00 0.00 0.00 0.00 0.00 0.00 0.00 0.00 0.00 0.00 0.00 0.01 0.01 0.01 0.02 0.02 0.02 0.01 0.00 0.00 0.00 0.00 0.00 0.00 0.00
0.06 0.03 0.01 0.01 0.01 0.02 0.03 0.04 0.05 0.07 0.06 0.04 0.02 0.00 0.00 0.00 0.00 0.00 0.00 0.00 0.01 0.01 0.00 0.00 0.00 0.00 0.00 0.00 0.00 0.00 0.00 0.00 0.01 0.01 0.01 0.02 0.02 0.01 0.00 0.00 0.00 0.00 0.00 0.00
0.06 0.05 0.02 0.01 0.02 0.02 0.02 0.03 0.06 0.09 0.08 0.06 0.02 0.01 0.00 0.00 0.00 0.00 0.00 0.00 0.01 0.01 0.01 0.00 0.00 0.00 0.00 0.00 0.00 0.00 0.00 0.01 0.01 0.00 0.01 0.01 0.02 0.01 0.01 0.00 0.00 0.00 0.00 0.00
0.05 0.05 0.03 0.02 0.03 0.03 0.03 0.03 0.06 0.09 0.09 0.06 0.03 0.01 0.00 0.00 0.00 0.00 0.00 0.00 0.01 0.01 0.01 0.01 0.01 0.01 0.00 0.00 0.00 0.00 0.00 0.01 0.01 0.01 0.01 0.01 0.01 0.01 0.01 0.01 0.00 0.00 0.00 0.00
0.03 0.06 0.04 0.02 0.01 0.02 0.04 0.03 0.04 0.07 0.08 0.06 0.05 0.01 0.00 0.00 0.00 0.00 0.00 0.01 0.00 0.00 0.01 0.01 0.01 0.01 0.01 0.00 0.00 0.00 0.00 0.00 0.01 0.01 0.01 0.01 0.01 0.01 0.01 0.01 0.01 0.01 0.00 0.00
0.06 0.09 0.07 0.04 0.02 0.02 0.03 0.04 0.04 0.05 0.06 0.06 0.06 0.03 0.00 0.00 0.00 0.00 0.00 0.00 0.00 0.00 0.00 0.00 0.01 0.01 0.01 0.01 0.01 0.00 0.00 0.00 0.01 0.01 0.01 0.01 0.01 0.01 0.01 0.01 0.01 0.01 0.00 0.00
0.12 0.12 0.09 0.06 0.03 0.02 0.02 0.03 0.03 0.06 0.09 0.06 0.03 0.02 0.01 0.00 0.00 0.00 0.00 0.00 0.00 0.00 0.00 0.00 0.00 0.00 0.01 0.01 0.01 0.00 0.00 0.00 0.00 0.01 0.01 0.01 0.01 0.01 0.00 0.00 0.01 0.00 0.00 0.00
0.11 0.11 0.07 0.05 0.03 0.03 0.03 0.02 0.03 0.04 0.05 0.05 0.03 0.02 0.01 0.01 0.00 0.00 0.00 0.00 0.00 0.00 0.00 0.00 0.00 0.00 0.00 0.00 0.01 0.01 0.00 0.00 0.00 0.00 0.01 0.01 0.01 0.01 0.01 0.01 0.00 0.00 0.00 0.00
0.08 0.09 0.05 0.04 0.03 0.04 0.04 0.03 0.03 0.03 0.02 0.02 0.02 0.02 0.02 0.01 0.01 0.00 0.00 0.00 0.00 0.00 0.00 0.00 0.00 0.00 0.00 0.00 0.00 0.01 0.01 0.00 0.00 0.00 0.00 0.01 0.01 0.01 0.01 0.01 0.01 0.01 0.01 0.00
0.06 0.08 0.08 0.05 0.02 0.05 0.05 0.03 0.02 0.03 0.02 0.01 0.01 0.01 0.01 0.01 0.01 0.01 0.00 0.00 0.00 0.00 0.00 0.00 0.00 0.00 0.00 0.00 0.01 0.00 0.01 0.01 0.00 0.00 0.00 0.00 0.01 0.01 0.01 0.01 0.01 0.01 0.01 0.00
0.03 0.05 0.08 0.06 0.04 0.05 0.03 0.01 0.01 0.01 0.02 0.02 0.01 0.01 0.01 0.01 0.01 0.00 0.00 0.00 0.00 0.00 0.00 0.00 0.00 0.00 0.00 0.00 0.00 0.00 0.00 0.01 0.00 0.00 0.00 0.00 0.00 0.00 0.01 0.01 0.01 0.01 0.01 0.01
0.01 0.03 0.08 0.08 0.06 0.03 0.01 0.00 0.01 0.01 0.02 0.02 0.02 0.01 0.01 0.01 0.01 0.00 0.00 0.00 0.00 0.00 0.00 0.00 0.00 0.00 0.00 0.00 0.00 0.00 0.00 0.00 0.00 0.00 0.00 0.00 0.00 0.00 0.00 0.01 0.01 0.02 0.01 0.01
0.01 0.03 0.07 0.08 0.06 0.03 0.00 0.00 0.00 0.01 0.01 0.01 0.02 0.01 0.01 0.00 0.01 0.01 0.00 0.00 0.00 0.00 0.00 0.00 0.00 0.00 0.00 0.00 0.00 0.00 0.00 0.00 0.00 0.00 0.00 0.00 0.00 0.00 0.00 0.00 0.01 0.01 0.01 0.01
0.03 0.05 0.06 0.06 0.05 0.02 0.00 0.00 0.01 0.02 0.02 0.01 0.02 0.01 0.01 0.01 0.01 0.01 0.00 0.00 0.00 0.00 0.00 0.00 0.00 0.00 0.00 0.00 0.00 0.00 0.00 0.00 0.00 0.00 0.01 0.00 0.00 0.00 0.00 0.00 0.00 0.01 0.01 0.02
0.03 0.05 0.04 0.04 0.05 0.03 0.00 0.00 0.00 0.01 0.01 0.01 0.01 0.01 0.01 0.01 0.00 0.00 0.00 0.00 0.01 0.00 0.00 0.00 0.00 0.00 0.00 0.00 0.00 0.01 0.01 0.01 0.01 0.01 0.01 0.01 0.00 0.01 0.01 0.01 0.01 0.01 0.01 0.01
0.03 0.03 0.03 0.03 0.02 0.01 0.01 0.01 0.01 0.01 0.01 0.01 0.01 0.01 0.01 0.01 0.01 0.00 0.00 0.00 0.00 0.01 0.01 0.00 0.00 0.00 0.00 0.00 0.01 0.01 0.01 0.01 0.01 0.01 0.01 0.01 0.01 0.01 0.01 0.01 0.01 0.01 0.01 0.01
0.01 0.02 0.03 0.02 0.01 0.01 0.01 0.01 0.01 0.01 0.01 0.01 0.00 0.01 0.01 0.02 0.01 0.01 0.00 0.00 0.00 0.00 0.00 0.00 0.00 0.01 0.01 0.01 0.01 0.01 0.01 0.01 0.01 0.01 0.01 0.01 0.01 0.02 0.02 0.02 0.01 0.01 0.01 0.01
0.01 0.01 0.02 0.02 0.01 0.01 0.01 0.01 0.01 0.00 0.00 0.00 0.00 0.01 0.01 0.02 0.02 0.01 0.01 0.00 0.00 0.00 0.00 0.01 0.01 0.01 0.01 0.01 0.01 0.01 0.01 0.01 0.01 0.02 0.02 0.02 0.02 0.02 0.02 0.02 0.02 0.02 0.01 0.01
0.01 0.01 0.01 0.01 0.01 0.01 0.01 0.01 0.01 0.01 0.01 0.00 0.00 0.00 0.01 0.01 0.02 0.02 0.01 0.01 0.01 0.01 0.01 0.01 0.01 0.01 0.01 0.01 0.01 0.01 0.01 0.01 0.02 0.02 0.02 0.02 0.02 0.02 0.03 0.03 0.03 0.02 0.02 0.02
MSLP
1014.23 1014.81 1015.31 1015.70 1015.97 1016.13 1016.17 1016.10 1015.92 1015.62 1015.20 1014.66 1013.97 1013.17 1012.28 1011.33 1010.37 1009.45 1008.60 1007.88 1007.28 1006.82 1006.50 1006.31 1006.23 1006.25 1006.37 1006.58 1006.89 1007.28 1007.77 1008.34 1008.95 1009.59 1010.23 1010.83 1011.38 1011.85 1012.24 1012.56 1012.84 1013.10 1013.36 1013.65
1014.62 1015.08 1015.46 1015.74 1015.95 1016.08 1016.14 1016.13 1016.03 1015.80 1015.42 1014.87 1014.13 1013.21 1012.15 1011.00 1009.83 1008.73 1007.73 1006.89 1006.23 1005.76 1005.46 1005.29 1005.24 1005.29 1005.41 1005.61 1005.90 1006.28 1006.77 1007.34 1007.99 1008.67 1009.36 1010.01 1010.59 1011.09 1011.49 1011.81 1012.07 1012.31 1012.56 1012.84
1014.80 1015.11 1015.35 1015.54 1015.68 1015.80 1015.91 1015.98 1015.97 1015.83 1015.51 1014.96 1014.16 1013.13 1011.91 1010.58 1009.22 1007.95 1006.82 1005.89 1005.19 1004.72 1004.45 1004.33 1004.32 1004.39 1004.53 1004.73 1005.00 1005.36 1005.83 1006.39 1007.04 1007.75 1008.47 1009.15 1009.76 1010.27 1010.67 1010.98 1011.23 1011.46 1011.69 1011.97
1014.73 1014.89 1015.00 1015.08 1015.18 1015.32 1015.49 1015.66 1015.75 1015.71 1015.44 1014.90 1014.05 1012.93 1011.57 1010.08 1008.58 1007.16 1005.93 1004.95 1004.24 1003.79 1003.56 1003.50 1003.54 1003.65 1003.80 1003.99 1004.24 1004.57 1005.00 1005.54 1006.17 1006.87 1007.59 1008.27 1008.89 1009.40 1009.79 1010.10 1010.33 1010.55 1010.78 1011.05
1014.44 1014.45 1014.43 1014.44 1014.51 1014.68 1014.92 1015.19 1015.39 1015.44 1015.23 1014.70 1013.83 1012.63 1011.17 1009.56 1007.94 1006.43 1005.14 1004.14 1003.44 1003.04 1002.87 1002.87 1002.97 1003.11 1003.28 1003.46 1003.68 1003.96 1004.34 1004.83 1005.42 1006.07 1006.76 1007.42 1008.02 1008.51 1008.90 1009.18 1009.41 1009.62 1009.84 1010.11
1014.00 1013.87 1013.74 1013.69 1013.76 1013.96 1014.28 1014.64 1014.93 1015.06 1014.90 1014.39 1013.50 1012.25 1010.72 1009.04 1007.36 1005.80 1004.50 1003.51 1002.85 1002.50 1002.40 1002.47 1002.62 1002.80 1002.97 1003.14 1003.32 1003.55 1003.86 1004.27 1004.79 1005.38 1006.01 1006.62 1007.18 1007.65 1008.01 1008.28 1008.50 1008.70 1008.91 1009.18
1013.49 1013.25 1013.05 1012.96 1013.03 1013.27 1013.64 1014.07 1014.44 1014.61 1014.49 1013.99 1013.08 1011.81 1010.25 1008.55 1006.85 1005.30 1004.02 1003.07 1002.48 1002.19 1002.16 1002.29 1002.48 1002.68 1002.86 1003.00 1003.13 1003.29 1003.53 1003.86 1004.29 1004.80 1005.35 1005.90 1006.40 1006.83 1007.16 1007.42 1007.62 1007.82 1008.03 1008.30
1013.02 1012.70 1012.45 1012.35 1012.43 1012.70 1013.10 1013.56 1013.95 1014.14 1014.02 1013.51 1012.60 1011.33 1009.78 1008.09 1006.42 1004.92 1003.70 1002.82 1002.29 1002.07 1002.09 1002.26 1002.48 1002.69 1002.84 1002.95 1003.03 1003.13 1003.29 1003.53 1003.87 1004.29 1004.76 1005.24 1005.68 1006.06 1006.36 1006.60 1006.80 1006.99 1007.20 1007.47
1012.64 1012.29 1012.04 1011.94 1012.02 1012.30 1012.70 1013.15 1013.51 1013.67 1013.52 1012.99 1012.08 1010.81 1009.30 1007.67 1006.07 1004.65 1003.51 1002.71 1002.24 1002.07 1002.12 1002.30 1002.52 1002.71 1002.83 1002.90 1002.93 1002.96 1003.05 1003.21 1003.47 1003.81 1004.20 1004.61 1005.00 1005.34 1005.61 1005.83 1006.01 1006.19 1006.40 1006.66
1012.38 1012.05 1011.81 1011.73 1011.82 1012.08 1012.44 1012.83 1013.12 1013.21 1012.99 1012.43 1011.51 1010.27 1008.82 1007.27 1005.77 1004.45 1003.40 1002.67 1002.25 1002.10 1002.15 1002.31 1002.50 1002.64 1002.72 1002.74 1002.72 1002.70 1002.72 1002.82 1003.01 1003.29 1003.62 1003.97 1004.30 1004.60 1004.85 1005.05 1005.22 1005.39 1005.59 1005.83
1012.21 1011.94 1011.75 1011.69 1011.78 1011.99 1012.28 1012.56 1012.74 1012.71 1012.42 1011.80 1010.88 1009.68 1008.31 1006.87 1005.49 1004.28 1003.32 1002.65 1002.25 1002.10 1002.11 1002.21 1002.33 1002.41 1002.43 1002.39 1002.31 1002.25 1002.23 1002.29 1002.43 1002.66 1002.94 1003.25 1003.55 1003.81 1004.03 1004.22 1004.37 1004.53 1004.72 1004.95
1012.07 1011.87 1011.74 1011.71 1011.77 1011.92 1012.10 1012.25 1012.29 1012.14 1011.75 1011.09 1010.16 1009.02 1007.74 1006.43 1005.18 1004.09 1003.22 1002.59 1002.20 1002.00 1001.95 1001.96 1001.98 1001.98 1001.92 1001.82 1001.70 1001.60 1001.55 1001.58 1001.69 1001.88 1002.13 1002.41 1002.68 1002.92 1003.12 1003.29 1003.44 1003.59 1003.77 1003.98
1011.89 1011.77 1011.69 1011.66 1011.69 1011.75 1011.81 1011.81 1011.70 1011.41 1010.93 1010.23 1009.33 1008.26 1007.10 1005.93 1004.82 1003.84 1003.05 1002.45 1002.04 1001.79 1001.64 1001.55 1001.46 1001.35 1001.21 1001.05 1000.88 1000.75 1000.68 1000.69 1000.79 1000.96 1001.18 1001.43 1001.68 1001.90 1002.09 1002.26 1002.40 1002.56 1002.73 1002.95
1011.58 1011.52 1011.47 1011.44 1011.41 1011.37 1011.29 1011.14 1010.88 1010.48 1009.93 1009.21 1008.35 1007.38 1006.35 1005.33 1004.36 1003.51 1002.79 1002.22 1001.78 1001.46 1001.21 1001.01 1000.80 1000.59 1000.37 1000.14 999.94 999.78 999.69 999.68 999.76 999.91 1000.11 1000.34 1000.56 1000.78 1000.97 1001.14 1001.30 1001.47 1001.66 1001.90
1011.10 1011.07 1011.03 1010.96 1010.85 1010.70 1010.49 1010.20 1009.82 1009.32 1008.73 1008.02 1007.23 1006.37 1005.50 1004.63 1003.81 1003.07 1002.42 1001.88 1001.42 1001.03 1000.70 1000.38 1000.08 999.77 999.47 999.19 998.95 998.76 998.65 998.63 998.68 998.80 998.98 999.18 999.40 999.61 999.81 999.99 1000.18 1000.39 1000.62 1000.89
1010.44 1010.40 1010.32 1010.19 1010.00 1009.74 1009.40 1008.99 1008.51 1007.96 1007.35 1006.69 1005.98 1005.26 1004.54 1003.83 1003.16 1002.54 1001.96 1001.45 1000.98 1000.54 1000.13 999.73 999.34 998.96 998.61 998.28 998.00 997.79 997.66 997.61 997.63 997.73 997.87 998.06 998.26 998.48 998.69 998.91 999.15 999.40 999.69 1000.03
1009.61 1009.53 1009.38 1009.17 1008.87 1008.51 1008.07 1007.57 1007.03 1006.46 1005.87 1005.27 1004.68 1004.09 1003.52 1002.97 1002.44 1001.92 1001.42 1000.94 1000.47 1000.00 999.54 999.09 998.65 998.23 997.83 997.48 997.18 996.95 996.80 996.72 996.71 996.77 996.89 997.05 997.25 997.48 997.72 997.99 998.28 998.61 998.97 999.38
1008.63 1008.47 1008.24 1007.94 1007.55 1007.10 1006.59 1006.04 1005.48 1004.92 1004.38 1003.87 1003.39 1002.94 1002.51 1002.09 1001.68 1001.26 1000.83 1000.38 999.92 999.45 998.98 998.50 998.04 997.60 997.20 996.84 996.54 996.29 996.12 996.02 995.98 996.01 996.11 996.26 996.46 996.70 996.99 997.31 997.67 998.07 998.51 998.98
1007.52 1007.28 1006.96 1006.57 1006.11 1005.60 1005.05 1004.49 1003.95 1003.44 1002.97 1002.56 1002.19 1001.86 1001.55 1001.25 1000.93 1000.59 1000.21 999.80 999.36 998.90 998.43 997.97 997.52 997.10 996.71 996.36 996.07 995.83 995.66 995.54 995.49 995.50 995.58 995.72 995.93 996.21 996.53 996.91 997.34 997.81 998.31 998.85
1006.29 1005.96 1005.57 1005.12 1004.62 1004.09 1003.55 1003.02 1002.52 1002.08 1001.71 1001.39 1001.13 1000.90 1000.69 1000.47 1000.22 999.93 999.59 999.21 998.80 998.36 997.91 997.48 997.06 996.68 996.33 996.03 995.77 995.55 995.39 995.27 995.22 995.23 995.31 995.47 995.70 996.00 996.37 996.80 997.28 997.81 998.36 998.94
1004.93 1004.54 1004.10 1003.62 1003.12 1002.61 1002.10 1001.63 1001.22 1000.87 1000.59 1000.37 1000.20 1000.06 999.91 999.75 999.54 999.29 998.98 998.62 998.23 997.82 997.41 997.02 996.66 996.33 996.04 995.79 995.58 995.40 995.27 995.18 995.15 995.18 995.28 995.46 995.72 996.05 996.47 996.94 997.46 998.01 998.59 999.18
1003.42 1003.00 1002.55 1002.08 1001.61 1001.14 1000.71 1000.33 1000.01 999.77 999.59 999.46 999.37 999.29 999.20 999.07 998.89 998.65 998.36 998.02 997.65 997.28 996.91 996.57 996.27 996.01 995.78 995.60 995.45 995.33 995.25 995.21 995.22 995.28 995.42 995.64 995.93 996.31 996.75 997.25 997.79 998.36 998.94 999.52
1001.79 1001.37 1000.94 1000.50 1000.07 999.68 999.34 999.06 998.84 998.70 998.62 998.57 998.55 998.53 998.47 998.37 998.21 997.99 997.71 997.39 997.05 996.71 996.40 996.11 995.87 995.68 995.53 995.42 995.34 995.29 995.27 995.29 995.35 995.47 995.66 995.93 996.26 996.67 997.14 997.66 998.21 998.78 999.34 999.89
1000.10 999.69 999.29 998.90 998.54 998.22 997.97 997.78 997.66 997.60 997.60 997.63 997.66 997.69 997.67 997.60 997.46 997.26 997.01 996.72 996.42 996.13 995.86 995.64 995.46 995.33 995.25 995.21 995.20 995.22 995.27 995.36 995.49 995.68 995.93 996.24 996.63 997.07 997.57 998.10 998.65 999.20 999.74 1000.26
998.45 998.07 997.70 997.35 997.05 996.79 996.59 996.47 996.42 996.43 996.49 996.57 996.66 996.72 996.75 996.71 996.61 996.46 996.25 996.01 995.76 995.52 995.31 995.15 995.03 994.96 994.94 994.96 995.02 995.11 995.23 995.39 995.59 995.85 996.16 996.53 996.96 997.45 997.97 998.51 999.05 999.59 1000.11 1000.62
996.99 996.64 996.30 995.98 995.70 995.47 995.30 995.20 995.18 995.21 995.30 995.41 995.53 995.64 995.71 995.72 995.68 995.58 995.44 995.27 995.09 994.92 994.78 994.67 994.61 994.60 994.63 994.70 994.81 994.96 995.14 995.36 995.63 995.95 996.33 996.76 997.24 997.76 998.30 998.86 999.42 999.95 1000.47 1000.97
Thickness
5596 5591 5595 5605 5608 5611 5610 5610 5615 5628 5639 5636 5637 5649 5668 5677 5676 5680 5688 5694 5701 5710 5720 5722 5725 5726 5725 5724 5722 5720 5717 5715 5710 5705 5701 5698 5695 5692 5689 5686 5683 5680 5676 5671
5582 5586 5600 5603 5602 5601 5600 5600 5606 5618 5629 5627 5628 5640 5659 5669 5674 5681 5687 5693 5699 5705 5711 5716 5720 5722 5723 5723 5722 5720 5718 5716 5712 5710 5706 5702 5698 5693 5690 5686 5682 5678 5674 5670
5578 5590 5596 5593 5591 5591 5594 5594 5600 5604 5613 5618 5616 5629 5649 5666 5671 5678 5684 5690 5697 5702 5708 5713 5715 5717 5719 5721 5722 5721 5719 5717 5714 5710 5703 5697 5691 5688 5684 5682 5680 5677 5673 5669
5572 5583 5586 5585 5585 5586 5587 5597 5596 5596 5592 5595 5602 5605 5639 5654 5662 5672 5680 5686 5692 5699 5703 5707 5711 5713 5716 5720 5721 5720 5720 5717 5714 5708 5702 5698 5695 5692 5690 5687 5682 5677 5672 5668
5567 5574 5576 5578 5583 5584 5585 5592 5590 5588 5584 5582 5591 5588 5624 5642 5652 5667 5677 5683 5689 5695 5698 5703 5707 5711 5715 5716 5716 5717 5715 5714 5712 5708 5704 5699 5696 5695 5690 5684 5679 5675 5670 5666
5562 5569 5571 5575 5582 5582 5581 5580 5578 5574 5570 5570 5589 5581 5609 5631 5651 5662 5672 5678 5684 5689 5693 5697 5702 5705 5708 5709 5710 5711 5711 5711 5709 5705 5703 5699 5696 5692 5686 5682 5677 5673 5669 5665
5551 5559 5566 5571 5569 5572 5569 5563 5557 5557 5557 5568 5588 5581 5609 5638 5649 5657 5665 5673 5679 5682 5684 5688 5693 5696 5699 5701 5702 5703 5705 5705 5704 5702 5700 5698 5695 5690 5686 5683 5678 5672 5668 5664
5535 5544 5557 5562 5563 5562 5563 5560 5552 5550 5555 5564 5574 5580 5612 5636 5645 5652 5658 5664 5669 5673 5677 5680 5685 5688 5691 5694 5695 5696 5698 5700 5699 5698 5697 5695 5692 5688 5685 5681 5677 5673 5669 5665
5528 5535 5552 5558 5560 5558 5555 5553 5558 5548 5547 5548 5562 5578 5601 5628 5635 5642 5647 5654 5658 5663 5668 5671 5676 5679 5683 5686 5688 5690 5691 5693 5694 5694 5692 5690 5687 5684 5682 5678 5674 5670 5667 5662
5523 5523 5536 5545 5550 5552 5551 5549 5542 5539 5539 5543 5556 5567 5587 5611 5624 5632 5637 5642 5646 5651 5655 5660 5664 5668 5672 5676 5680 5682 5684 5686 5688 5688 5687 5686 5683 5681 5678 5673 5669 5666 5662 5657
5517 5513 5522 5530 5534 5539 5539 5537 5538 5536 5537 5537 5544 5569 5596 5605 5615 5619 5624 5629 5633 5637 5642 5646 5651 5656 5660 5665 5669 5672 5675 5677 5678 5680 5680 5679 5677 5675 5671 5668 5665 5662 5657 5652
5511 5506 5508 5519 5533 5537 5534 5534 5532 5527 5530 5530 5534 5564 5597 5598 5602 5606 5609 5615 5620 5625 5629 5634 5639 5644 5648 5653 5657 5661 5664 5667 5670 5672 5671 5671 5670 5668 5665 5663 5660 5656 5652 5647
5503 5499 5498 5508 5517 5520 5521 5525 5526 5524 5522 5522 5527 5558 5589 5589 5591 5596 5598 5601 5607 5613 5618 5623 5627 5632 5636 5641 5646 5650 5654 5658 5661 5662 5662 5661 5661 5660 5659 5657 5654 5650 5645 5641
5500 5490 5493 5500 5507 5507 5509 5515 5517 5515 5515 5519 5529 5551 5573 5577 5580 5585 5587 5590 5593 5599 5605 5610 5615 5620 5625 5630 5634 5639 5643 5647 5650 5652 5652 5652 5653 5653 5652 5650 5646 5643 5639 5635
5487 5483 5485 5492 5498 5498 5501 5506 5510 5511 5517 5517 5533 5543 5564 5565 5565 5569 5573 5577 5582 5588 5593 5599 5603 5607 5613 5618 5623 5628 5632 5636 5639 5641 5643 5644 5644 5644 5643 5641 5638 5635 5632 5628
5476 5475 5478 5484 5494 5493 5495 5504 5507 5511 5516 5521 5528 5541 5559 5556 5556 5559 5563 5566 5571 5577 5581 5586 5591 5596 5601 5607 5612 5616 5621 5625 5629 5632 5634 5636 5635 5634 5633 5632 5630 5626 5623 5620
5466 5466 5466 5473 5483 5481 5490 5509 5510 5513 5519 5521 5526 5544 5549 5545 5548 5551 5555 5558 5561 5566 5570 5574 5580 5585 5590 5595 5601 5606 5611 5615 5618 5622 5624 5625 5625 5625 5624 5622 5619 5617 5614 5610
5461 5459 5457 5460 5464 5467 5503 5513 5513 5512 5518 5521 5527 5534 5536 5538 5540 5543 5547 5549 5552 5556 5560 5565 5569 5575 5580 5585 5589 5594 5599 5603 5607 5610 5613 5614 5614 5614 5613 5611 5609 5607 5604 5600
5463 5457 5453 5452 5454 5470 5497 5505 5504 5502 5510 5519 5519 5524 5527 5528 5527 5535 5540 5540 5542 5546 5550 5555 5560 5564 5569 5574 5578 5582 5587 5591 5595 5599 5602 5603 5604 5603 5602 5601 5600 5597 5594 5591
5459 5455 5450 5448 5451 5463 5494 5504 5504 5498 5498 5514 5512 5513 5515 5513 5510 5526 5530 5529 5532 5536 5540 5544 5548 5552 5557 5561 5564 5568 5574 5578 5582 5587 5589 5590 5591 5591 5591 5591 5589 5585 5584 5581
5449 5447 5447 5447 5448 5465 5489 5494 5493 5482 5494 5503 5502 5502 5502 5501 5505 5513 5517 5519 5523 5526 5530 5534 5537 5540 5545 5548 5551 5556 5561 5564 5568 5571 5574 5576 5578 5579 5579 5577 5575 5572 5570 5567
5448 5445 5445 5445 5446 5464 5485 5480 5481 5487 5491 5491 5490 5491 5492 5495 5499 5502 5505 5509 5512 5515 5518 5522 5524 5528 5531 5534 5537 5542 5546 5550 5552 5556 5559 5561 5564 5565 5565 5563 5561 5559 5556 5554
5448 5455 5453 5454 5464 5475 5475 5476 5479 5479 5478 5479 5479 5481 5482 5484 5487 5491 5494 5497 5501 5503 5505 5508 5511 5515 5518 5521 5524 5528 5533 5535 5538 5541 5545 5547 5550 5551 5551 5551 5549 5546 5544 5542
5441 5446 5444 5445 5457 5463 5465 5466 5468 5468 5468 5470 5471 5472 5473 5474 5477 5481 5483 5485 5488 5490 5492 5495 5497 5501 5505 5508 5511 5515 5518 5521 5523 5527 5531 5534 5536 5538 5538 5537 5536 5535 5534 5532
5438 5435 5435 5441 5453 5454 5459 5459 5460 5460 5461 5462 5463 5463 5463 5463 5465 5468 5471 5473 5474 5477 5479 5480 5483 5486 5490 5493 5497 5501 5504 5507 5509 5513 5517 5519 5522 5524 5524 5524 5524 5524 5524 5524
5432 5432 5431 5442 5447 5443 5449 5452 5451 5450 5451 5452 5452 5453 5453 5452 5453 5456 5457 5459 5461 5463 5466 5467 5470 5472 5476 5479 5483 5487 5490 5493 5496 5499 5502 5504 5507 5509 5510 5510 5508 5508 5509 5508